QPF
0.00 0.00 0.00 0.00 0.00 0.00 0.00 0.00 0.00 0.00 0.00 0.00 0.00 0.00 0.00 0.01 0.03 0.04 0.04 0.03 0.04 0.05 0.06 0.06 0.05 0.05 0.06 0.09 0.16 0.09 0.06 0.06 0.09 0.07 0.05 0.05 0.05 0.04 0.05 0.07 0.08 0.13 0.14
0.00 0.00 0.00 0.00 0.00 0.00 0.00 0.00 0.00 0.00 0.01 0.01 0.01 0.00 0.00 0.00 0.02 0.03 0.04 0.04 0.03 0.03 0.04 0.05 0.05 0.06 0.07 0.13 0.20 0.18 0.09 0.07 0.06 0.06 0.05 0.04 0.04 0.05 0.05 0.07 0.11 0.15 0.14
0.00 0.00 0.00 0.00 0.00 0.00 0.00 0.00 0.01 0.01 0.01 0.01 0.02 0.01 0.01 0.00 0.01 0.02 0.02 0.03 0.03 0.03 0.03 0.05 0.07 0.08 0.10 0.11 0.13 0.15 0.14 0.09 0.08 0.06 0.05 0.05 0.05 0.06 0.06 0.06 0.07 0.09 0.11
0.00 0.00 0.00 0.00 0.00 0.00 0.00 0.01 0.01 0.01 0.01 0.01 0.02 0.02 0.01 0.02 0.01 0.01 0.01 0.01 0.02 0.02 0.03 0.04 0.05 0.08 0.08 0.06 0.06 0.09 0.12 0.11 0.10 0.08 0.07 0.07 0.07 0.06 0.05 0.05 0.05 0.05 0.06
0.00 0.00 0.00 0.00 0.00 0.00 0.01 0.00 0.01 0.01 0.02 0.02 0.02 0.02 0.02 0.03 0.02 0.01 0.01 0.01 0.01 0.02 0.02 0.02 0.03 0.05 0.06 0.06 0.06 0.09 0.11 0.11 0.09 0.08 0.07 0.07 0.08 0.07 0.07 0.06 0.05 0.05 0.05
0.00 0.00 0.00 0.00 0.00 0.00 0.01 0.00 0.01 0.01 0.01 0.02 0.01 0.01 0.01 0.01 0.02 0.01 0.01 0.01 0.01 0.01 0.01 0.01 0.02 0.02 0.03 0.04 0.09 0.19 0.14 0.12 0.13 0.10 0.07 0.07 0.08 0.07 0.07 0.05 0.04 0.04 0.04
0.00 0.00 0.00 0.00 0.00 0.00 0.00 0.00 0.00 0.00 0.00 0.01 0.02 0.02 0.02 0.01 0.02 0.02 0.02 0.02 0.01 0.01 0.02 0.02 0.03 0.03 0.03 0.04 0.09 0.20 0.20 0.13 0.12 0.12 0.10 0.09 0.07 0.06 0.06 0.06 0.05 0.04 0.04
0.00 0.00 0.00 0.00 0.00 0.00 0.00 0.00 0.00 0.00 0.00 0.00 0.01 0.02 0.03 0.02 0.02 0.02 0.02 0.02 0.02 0.02 0.03 0.03 0.03 0.02 0.02 0.06 0.06 0.10 0.17 0.15 0.10 0.11 0.13 0.12 0.08 0.07 0.06 0.05 0.04 0.03 0.04
0.00 0.00 0.00 0.00 0.00 0.00 0.00 0.00 0.00 0.00 0.00 0.00 0.00 0.01 0.02 0.02 0.01 0.02 0.02 0.02 0.02 0.03 0.03 0.03 0.02 0.03 0.02 0.04 0.06 0.06 0.10 0.11 0.10 0.10 0.10 0.09 0.07 0.05 0.04 0.04 0.04 0.04 0.04
0.00 0.00 0.00 0.00 0.00 0.00 0.00 0.00 0.00 0.00 0.01 0.01 0.00 0.00 0.01 0.01 0.02 0.02 0.02 0.02 0.02 0.03 0.03 0.03 0.02 0.03 0.03 0.04 0.05 0.05 0.06 0.08 0.07 0.07 0.08 0.08 0.07 0.06 0.04 0.04 0.05 0.05 0.05
0.00 0.00 0.00 0.00 0.00 0.00 0.00 0.00 0.00 0.01 0.01 0.01 0.01 0.01 0.01 0.01 0.01 0.02 0.03 0.03 0.03 0.03 0.03 0.03 0.03 0.04 0.03 0.03 0.03 0.03 0.04 0.05 0.07 0.07 0.08 0.08 0.07 0.07 0.06 0.06 0.06 0.07 0.07
0.00 0.00 0.00 0.00 0.00 0.00 0.00 0.00 0.00 0.01 0.00 0.01 0.00 0.01 0.02 0.02 0.03 0.03 0.03 0.04 0.03 0.03 0.04 0.03 0.02 0.02 0.02 0.02 0.01 0.01 0.02 0.03 0.05 0.06 0.08 0.10 0.10 0.07 0.06 0.07 0.08 0.08 0.08
0.00 0.00 0.00 0.00 0.00 0.00 0.00 0.00 0.00 0.00 0.00 0.01 0.01 0.01 0.01 0.02 0.04 0.04 0.03 0.03 0.03 0.03 0.02 0.01 0.01 0.02 0.01 0.01 0.01 0.01 0.01 0.02 0.03 0.04 0.05 0.06 0.08 0.09 0.08 0.09 0.09 0.08 0.07
0.00 0.00 0.00 0.00 0.00 0.00 0.00 0.00 0.00 0.00 0.00 0.00 0.00 0.01 0.01 0.01 0.01 0.01 0.02 0.02 0.02 0.02 0.01 0.01 0.01 0.01 0.01 0.01 0.00 0.01 0.01 0.01 0.03 0.06 0.05 0.04 0.04 0.04 0.04 0.06 0.07 0.06 0.04
0.00 0.00 0.00 0.00 0.00 0.00 0.00 0.00 0.00 0.00 0.00 0.00 0.00 0.01 0.01 0.00 0.00 0.00 0.00 0.00 0.01 0.02 0.01 0.01 0.01 0.00 0.01 0.00 0.00 0.01 0.01 0.01 0.01 0.02 0.02 0.02 0.02 0.02 0.02 0.03 0.04 0.03 0.03
0.00 0.00 0.00 0.00 0.00 0.00 0.00 0.00 0.00 0.00 0.00 0.00 0.00 0.00 0.00 0.00 0.00 0.00 0.00 0.00 0.01 0.01 0.01 0.01 0.00 0.00 0.00 0.00 0.00 0.01 0.01 0.01 0.00 0.01 0.01 0.02 0.01 0.01 0.02 0.02 0.02 0.02 0.02
0.00 0.00 0.00 0.00 0.00 0.00 0.00 0.00 0.00 0.00 0.00 0.01 0.00 0.00 0.00 0.00 0.00 0.00 0.00 0.00 0.00 0.01 0.01 0.01 0.00 0.00 0.01 0.01 0.01 0.01 0.01 0.01 0.00 0.00 0.01 0.02 0.01 0.01 0.03 0.04 0.04 0.02 0.02
0.00 0.00 0.00 0.00 0.00 0.00 0.00 0.00 0.00 0.00 0.00 0.00 0.00 0.00 0.00 0.00 0.00 0.00 0.00 0.00 0.00 0.01 0.01 0.01 0.01 0.01 0.01 0.01 0.01 0.01 0.00 0.00 0.00 0.00 0.00 0.00 0.00 0.01 0.03 0.05 0.07 0.06 0.05
0.00 0.00 0.00 0.00 0.00 0.00 0.00 0.00 0.00 0.00 0.00 0.00 0.00 0.01 0.01 0.00 0.01 0.00 0.00 0.00 0.00 0.00 0.00 0.01 0.01 0.01 0.01 0.00 0.00 0.00 0.00 0.00 0.00 0.00 0.00 0.00 0.00 0.01 0.02 0.02 0.03 0.05 0.07
0.00 0.00 0.00 0.00 0.00 0.00 0.00 0.00 0.00 0.00 0.00 0.00 0.00 0.01 0.01 0.01 0.01 0.01 0.01 0.01 0.00 0.00 0.00 0.01 0.01 0.01 0.01 0.00 0.00 0.00 0.00 0.00 0.00 0.00 0.00 0.00 0.00 0.01 0.02 0.02 0.02 0.02 0.03
0.00 0.00 0.00 0.00 0.00 0.00 0.00 0.00 0.00 0.00 0.00 0.00 0.00 0.00 0.00 0.00 0.00 0.00 0.00 0.00 0.00 0.00 0.01 0.01 0.01 0.01 0.01 0.00 0.01 0.01 0.00 0.00 0.00 0.00 0.00 0.00 0.00 0.00 0.01 0.01 0.02 0.03 0.03
0.01 0.01 0.01 0.01 0.00 0.00 0.00 0.00 0.00 0.00 0.00 0.00 0.01 0.00 0.00 0.00 0.00 0.00 0.00 0.00 0.00 0.00 0.00 0.00 0.00 0.00 0.00 0.00 0.00 0.00 0.00 0.01 0.01 0.00 0.00 0.00 0.00 0.00 0.00 0.00 0.01 0.01 0.03
0.01 0.00 0.01 0.01 0.00 0.00 0.00 0.00 0.00 0.00 0.00 0.00 0.01 0.00 0.00 0.00 0.00 0.00 0.00 0.00 0.00 0.00 0.00 0.00 0.00 0.00 0.00 0.00 0.00 0.00 0.00 0.00 0.01 0.00 0.00 0.00 0.00 0.00 0.00 0.00 0.00 0.00 0.01
0.00 0.00 0.01 0.01 0.00 0.00 0.00 0.00 0.00 0.00 0.00 0.00 0.00 0.01 0.01 0.00 0.00 0.00 0.00 0.00 0.00 0.00 0.00 0.00 0.00 0.00 0.00 0.00 0.00 0.00 0.00 0.00 0.00 0.00 0.00 0.00 0.00 0.00 0.00 0.00 0.00 0.00 0.00
0.00 0.01 0.01 0.01 0.00 0.00 0.00 0.00 0.00 0.00 0.00 0.00 0.00 0.00 0.00 0.00 0.00 0.00 0.00 0.00 0.00 0.00 0.00 0.00 0.00 0.00 0.00 0.00 0.00 0.00 0.00 0.00 0.00 0.00 0.00 0.00 0.00 0.00 0.00 0.00 0.00 0.00 0.00
0.01 0.01 0.01 0.00 0.00 0.00 0.00 0.00 0.00 0.00 0.00 0.00 0.00 0.00 0.00 0.00 0.00 0.00 0.00 0.00 0.00 0.00 0.00 0.00 0.00 0.00 0.00 0.00 0.00 0.00 0.00 0.01 0.01 0.01 0.00 0.00 0.00 0.00 0.00 0.00 0.00 0.00 0.00
MSLP
1017.91 1017.68 1017.44 1017.20 1016.96 1016.72 1016.49 1016.27 1016.04 1015.81 1015.57 1015.32 1015.09 1014.88 1014.73 1014.66 1014.67 1014.79 1014.99 1015.26 1015.57 1015.89 1016.18 1016.42 1016.60 1016.73 1016.81 1016.88 1016.93 1017.01 1017.10 1017.22 1017.37 1017.52 1017.67 1017.81 1017.94 1018.04 1018.12 1018.17 1018.21 1018.24 1018.27
1018.12 1017.85 1017.59 1017.33 1017.07 1016.82 1016.57 1016.33 1016.08 1015.82 1015.56 1015.30 1015.06 1014.86 1014.71 1014.63 1014.64 1014.74 1014.92 1015.16 1015.44 1015.73 1016.01 1016.25 1016.45 1016.60 1016.73 1016.83 1016.92 1017.02 1017.13 1017.26 1017.39 1017.53 1017.67 1017.79 1017.90 1017.98 1018.04 1018.07 1018.09 1018.10 1018.11
1018.41 1018.12 1017.83 1017.56 1017.29 1017.02 1016.76 1016.50 1016.23 1015.96 1015.69 1015.43 1015.19 1014.98 1014.83 1014.74 1014.73 1014.80 1014.94 1015.13 1015.37 1015.62 1015.87 1016.11 1016.32 1016.50 1016.66 1016.80 1016.92 1017.04 1017.15 1017.26 1017.37 1017.48 1017.59 1017.68 1017.76 1017.82 1017.86 1017.88 1017.89 1017.89 1017.89
1018.75 1018.45 1018.16 1017.87 1017.60 1017.32 1017.04 1016.77 1016.48 1016.20 1015.93 1015.67 1015.44 1015.24 1015.09 1015.00 1014.96 1014.98 1015.07 1015.20 1015.38 1015.58 1015.80 1016.03 1016.24 1016.45 1016.63 1016.79 1016.93 1017.04 1017.14 1017.22 1017.30 1017.36 1017.42 1017.48 1017.53 1017.57 1017.61 1017.63 1017.64 1017.64 1017.64
1019.12 1018.82 1018.54 1018.25 1017.97 1017.69 1017.40 1017.11 1016.82 1016.54 1016.27 1016.03 1015.81 1015.63 1015.48 1015.37 1015.31 1015.29 1015.31 1015.38 1015.49 1015.64 1015.83 1016.03 1016.25 1016.46 1016.65 1016.82 1016.96 1017.06 1017.12 1017.16 1017.18 1017.19 1017.20 1017.22 1017.25 1017.28 1017.32 1017.35 1017.38 1017.39 1017.39
1019.50 1019.23 1018.95 1018.67 1018.39 1018.10 1017.81 1017.51 1017.21 1016.94 1016.68 1016.46 1016.27 1016.11 1015.97 1015.86 1015.77 1015.71 1015.67 1015.68 1015.72 1015.82 1015.96 1016.14 1016.34 1016.55 1016.74 1016.90 1017.02 1017.09 1017.11 1017.10 1017.06 1017.02 1016.98 1016.97 1016.98 1017.01 1017.05 1017.10 1017.13 1017.15 1017.16
1019.89 1019.64 1019.39 1019.12 1018.84 1018.55 1018.25 1017.95 1017.65 1017.39 1017.16 1016.96 1016.80 1016.66 1016.54 1016.43 1016.32 1016.22 1016.14 1016.08 1016.07 1016.11 1016.20 1016.35 1016.53 1016.72 1016.90 1017.04 1017.13 1017.16 1017.14 1017.07 1016.98 1016.90 1016.83 1016.79 1016.78 1016.80 1016.84 1016.89 1016.92 1016.94 1016.94
1020.27 1020.06 1019.83 1019.58 1019.31 1019.02 1018.71 1018.41 1018.13 1017.88 1017.68 1017.52 1017.39 1017.28 1017.18 1017.08 1016.95 1016.82 1016.69 1016.59 1016.52 1016.50 1016.55 1016.66 1016.80 1016.96 1017.11 1017.23 1017.28 1017.28 1017.21 1017.11 1016.99 1016.87 1016.78 1016.72 1016.69 1016.69 1016.71 1016.72 1016.72 1016.70 1016.66
1020.66 1020.48 1020.28 1020.05 1019.78 1019.50 1019.20 1018.90 1018.63 1018.41 1018.24 1018.11 1018.02 1017.94 1017.87 1017.77 1017.64 1017.49 1017.32 1017.17 1017.05 1016.99 1016.98 1017.04 1017.14 1017.27 1017.38 1017.45 1017.47 1017.44 1017.35 1017.23 1017.09 1016.96 1016.85 1016.77 1016.71 1016.66 1016.61 1016.54 1016.45 1016.33 1016.19
1021.06 1020.91 1020.73 1020.52 1020.27 1019.99 1019.70 1019.42 1019.17 1018.97 1018.82 1018.73 1018.67 1018.63 1018.57 1018.48 1018.35 1018.18 1017.99 1017.81 1017.65 1017.53 1017.48 1017.48 1017.53 1017.60 1017.66 1017.70 1017.69 1017.63 1017.53 1017.41 1017.27 1017.15 1017.03 1016.92 1016.80 1016.67 1016.49 1016.27 1016.00 1015.71 1015.42
1021.46 1021.34 1021.19 1020.99 1020.76 1020.49 1020.22 1019.96 1019.73 1019.56 1019.44 1019.37 1019.34 1019.31 1019.27 1019.19 1019.06 1018.89 1018.68 1018.47 1018.27 1018.11 1018.01 1017.96 1017.94 1017.95 1017.96 1017.94 1017.90 1017.83 1017.73 1017.61 1017.50 1017.38 1017.25 1017.09 1016.89 1016.62 1016.26 1015.82 1015.31 1014.78 1014.26
1021.86 1021.77 1021.64 1021.47 1021.26 1021.02 1020.77 1020.53 1020.32 1020.17 1020.07 1020.02 1020.00 1019.99 1019.95 1019.87 1019.75 1019.57 1019.35 1019.12 1018.90 1018.71 1018.55 1018.44 1018.36 1018.30 1018.24 1018.18 1018.10 1018.01 1017.91 1017.81 1017.71 1017.60 1017.45 1017.23 1016.91 1016.46 1015.87 1015.15 1014.34 1013.50 1012.69
1022.25 1022.19 1022.10 1021.95 1021.77 1021.56 1021.34 1021.13 1020.95 1020.81 1020.72 1020.67 1020.65 1020.63 1020.60 1020.52 1020.39 1020.21 1019.99 1019.76 1019.52 1019.30 1019.10 1018.93 1018.78 1018.65 1018.52 1018.39 1018.26 1018.15 1018.05 1017.96 1017.87 1017.75 1017.57 1017.27 1016.81 1016.16 1015.31 1014.28 1013.13 1011.95 1010.83
1022.63 1022.61 1022.54 1022.44 1022.31 1022.14 1021.95 1021.77 1021.61 1021.48 1021.39 1021.33 1021.30 1021.26 1021.21 1021.12 1020.99 1020.82 1020.61 1020.37 1020.13 1019.89 1019.66 1019.43 1019.22 1019.00 1018.79 1018.60 1018.42 1018.26 1018.14 1018.05 1017.95 1017.82 1017.58 1017.19 1016.59 1015.73 1014.63 1013.29 1011.81 1010.29 1008.86
1023.00 1023.02 1023.00 1022.95 1022.86 1022.74 1022.60 1022.45 1022.31 1022.19 1022.08 1022.00 1021.94 1021.87 1021.80 1021.69 1021.56 1021.39 1021.19 1020.97 1020.73 1020.49 1020.23 1019.95 1019.67 1019.38 1019.09 1018.82 1018.57 1018.37 1018.21 1018.08 1017.96 1017.79 1017.50 1017.02 1016.29 1015.26 1013.93 1012.33 1010.57 1008.77 1007.07
1023.38 1023.44 1023.47 1023.48 1023.45 1023.39 1023.30 1023.18 1023.06 1022.93 1022.81 1022.70 1022.59 1022.49 1022.38 1022.26 1022.12 1021.95 1021.77 1021.56 1021.34 1021.09 1020.81 1020.50 1020.17 1019.81 1019.44 1019.08 1018.75 1018.48 1018.26 1018.09 1017.93 1017.71 1017.37 1016.81 1015.98 1014.82 1013.34 1011.57 1009.62 1007.62 1005.74
1023.78 1023.88 1023.97 1024.03 1024.07 1024.07 1024.02 1023.94 1023.83 1023.70 1023.56 1023.41 1023.27 1023.13 1022.98 1022.84 1022.68 1022.52 1022.35 1022.17 1021.95 1021.71 1021.42 1021.09 1020.71 1020.28 1019.84 1019.40 1018.99 1018.64 1018.36 1018.12 1017.90 1017.63 1017.24 1016.64 1015.75 1014.54 1013.01 1011.18 1009.16 1007.09 1005.13
1024.20 1024.35 1024.49 1024.61 1024.70 1024.75 1024.75 1024.70 1024.61 1024.47 1024.32 1024.14 1023.96 1023.78 1023.61 1023.44 1023.28 1023.12 1022.95 1022.78 1022.58 1022.34 1022.05 1021.70 1021.28 1020.81 1020.30 1019.79 1019.31 1018.88 1018.51 1018.20 1017.91 1017.60 1017.17 1016.55 1015.67 1014.49 1013.00 1011.22 1009.26 1007.25 1005.33
1024.67 1024.85 1025.03 1025.19 1025.33 1025.42 1025.45 1025.42 1025.34 1025.22 1025.05 1024.86 1024.65 1024.45 1024.25 1024.07 1023.89 1023.73 1023.57 1023.40 1023.21 1022.97 1022.68 1022.31 1021.87 1021.37 1020.81 1020.25 1019.70 1019.19 1018.74 1018.36 1018.01 1017.64 1017.20 1016.59 1015.77 1014.68 1013.32 1011.71 1009.92 1008.08 1006.32
1025.16 1025.35 1025.55 1025.74 1025.90 1026.01 1026.07 1026.06 1026.00 1025.88 1025.72 1025.53 1025.32 1025.11 1024.90 1024.70 1024.52 1024.35 1024.19 1024.02 1023.82 1023.58 1023.28 1022.90 1022.45 1021.93 1021.35 1020.74 1020.14 1019.57 1019.06 1018.61 1018.20 1017.79 1017.33 1016.77 1016.03 1015.09 1013.92 1012.54 1011.02 1009.45 1007.92
1025.63 1025.83 1026.02 1026.21 1026.37 1026.49 1026.56 1026.57 1026.52 1026.42 1026.28 1026.11 1025.92 1025.72 1025.52 1025.33 1025.14 1024.97 1024.79 1024.60 1024.39 1024.13 1023.82 1023.44 1022.98 1022.45 1021.86 1021.24 1020.61 1020.00 1019.44 1018.93 1018.47 1018.02 1017.56 1017.04 1016.40 1015.62 1014.68 1013.58 1012.36 1011.10 1009.87
1026.05 1026.23 1026.41 1026.58 1026.73 1026.84 1026.91 1026.92 1026.90 1026.83 1026.72 1026.59 1026.44 1026.27 1026.09 1025.91 1025.73 1025.54 1025.34 1025.13 1024.89 1024.61 1024.28 1023.89 1023.43 1022.91 1022.33 1021.71 1021.08 1020.45 1019.85 1019.30 1018.79 1018.32 1017.85 1017.36 1016.82 1016.19 1015.46 1014.63 1013.72 1012.77 1011.84
1026.37 1026.52 1026.68 1026.82 1026.94 1027.03 1027.10 1027.12 1027.12 1027.09 1027.03 1026.95 1026.85 1026.73 1026.60 1026.44 1026.26 1026.06 1025.83 1025.58 1025.31 1024.99 1024.64 1024.23 1023.78 1023.27 1022.71 1022.12 1021.50 1020.88 1020.27 1019.69 1019.14 1018.64 1018.15 1017.68 1017.20 1016.69 1016.13 1015.53 1014.88 1014.22 1013.56
1026.55 1026.69 1026.82 1026.93 1027.03 1027.11 1027.16 1027.20 1027.23 1027.24 1027.23 1027.21 1027.17 1027.11 1027.01 1026.88 1026.71 1026.49 1026.24 1025.95 1025.62 1025.27 1024.88 1024.46 1024.01 1023.52 1022.99 1022.43 1021.84 1021.24 1020.64 1020.05 1019.48 1018.93 1018.43 1017.94 1017.49 1017.04 1016.60 1016.16 1015.71 1015.26 1014.82
1026.60 1026.73 1026.85 1026.95 1027.03 1027.10 1027.16 1027.21 1027.26 1027.31 1027.36 1027.40 1027.42 1027.41 1027.35 1027.24 1027.07 1026.84 1026.55 1026.22 1025.84 1025.44 1025.02 1024.58 1024.12 1023.65 1023.16 1022.64 1022.09 1021.52 1020.94 1020.34 1019.75 1019.18 1018.63 1018.12 1017.65 1017.22 1016.83 1016.47 1016.14 1015.83 1015.53
1026.53 1026.69 1026.82 1026.93 1027.01 1027.08 1027.15 1027.22 1027.29 1027.38 1027.47 1027.55 1027.61 1027.64 1027.61 1027.52 1027.35 1027.10 1026.78 1026.40 1025.98 1025.53 1025.07 1024.61 1024.15 1023.69 1023.23 1022.74 1022.24 1021.70 1021.14 1020.56 1019.95 1019.35 1018.76 1018.21 1017.70 1017.24 1016.84 1016.50 1016.21 1015.96 1015.73
Thickness
5736 5736 5735 5732 5733 5732 5732 5732 5732 5732 5732 5732 5731 5731 5731 5730 5729 5728 5726 5724 5725 5726 5727 5729 5730 5732 5734 5736 5738 5741 5743 5745 5745 5746 5746 5747 5748 5749 5750 5750 5751 5751 5753
5734 5733 5733 5731 5731 5731 5730 5731 5731 5729 5729 5728 5727 5726 5726 5726 5725 5725 5724 5723 5722 5722 5724 5725 5726 5728 5730 5732 5734 5736 5739 5741 5742 5742 5743 5744 5745 5746 5746 5747 5747 5748 5749
5732 5732 5731 5731 5730 5729 5729 5728 5728 5728 5726 5725 5724 5723 5723 5723 5722 5722 5721 5721 5721 5720 5720 5721 5722 5724 5726 5728 5730 5731 5734 5737 5738 5739 5740 5741 5742 5742 5743 5743 5744 5744 5745
5729 5728 5729 5729 5728 5727 5727 5726 5726 5725 5724 5723 5722 5721 5720 5718 5719 5719 5719 5719 5719 5719 5717 5717 5718 5719 5721 5723 5726 5729 5732 5734 5736 5737 5737 5737 5738 5738 5739 5740 5740 5740 5742
5727 5727 5725 5726 5726 5725 5725 5725 5724 5723 5721 5719 5718 5716 5716 5715 5715 5715 5716 5716 5716 5716 5716 5714 5714 5715 5717 5719 5722 5725 5728 5731 5733 5734 5733 5733 5733 5734 5735 5736 5736 5737 5738
5723 5724 5723 5723 5723 5723 5722 5722 5720 5719 5718 5717 5717 5715 5714 5713 5712 5711 5712 5712 5712 5713 5713 5713 5713 5712 5712 5714 5717 5719 5723 5726 5728 5729 5728 5728 5729 5730 5730 5731 5732 5733 5734
5720 5720 5721 5720 5719 5719 5718 5719 5718 5716 5716 5716 5714 5712 5711 5712 5710 5708 5709 5709 5709 5709 5709 5709 5709 5710 5710 5710 5711 5713 5716 5719 5721 5722 5723 5723 5724 5725 5726 5727 5728 5729 5730
5717 5718 5718 5718 5716 5715 5715 5715 5714 5714 5713 5713 5713 5710 5706 5705 5705 5707 5706 5705 5706 5706 5706 5706 5706 5706 5706 5707 5706 5707 5709 5712 5714 5715 5716 5718 5718 5719 5720 5722 5723 5724 5725
5713 5714 5714 5715 5714 5714 5712 5711 5711 5710 5709 5711 5711 5709 5704 5701 5702 5703 5703 5703 5702 5701 5702 5701 5701 5702 5702 5702 5702 5702 5703 5705 5707 5709 5710 5712 5712 5713 5715 5717 5718 5719 5720
5710 5710 5710 5711 5711 5711 5710 5710 5709 5708 5706 5706 5706 5706 5706 5703 5701 5698 5700 5700 5699 5698 5698 5697 5697 5697 5697 5698 5697 5696 5697 5699 5701 5703 5704 5706 5707 5708 5709 5711 5712 5713 5715
5707 5707 5707 5708 5708 5707 5706 5705 5705 5705 5705 5703 5703 5702 5701 5700 5703 5698 5695 5694 5696 5695 5693 5692 5692 5691 5691 5692 5692 5692 5692 5694 5695 5697 5698 5700 5701 5703 5704 5705 5706 5708 5709
5705 5704 5704 5705 5704 5704 5703 5702 5702 5701 5701 5699 5700 5699 5697 5696 5696 5695 5693 5691 5690 5690 5690 5689 5688 5687 5687 5687 5687 5686 5688 5689 5690 5691 5692 5693 5695 5696 5698 5699 5701 5702 5704
5702 5702 5702 5702 5701 5700 5699 5699 5699 5698 5697 5696 5695 5695 5694 5694 5694 5693 5692 5690 5688 5688 5687 5686 5684 5683 5683 5683 5682 5681 5683 5683 5684 5685 5686 5687 5688 5689 5691 5692 5694 5695 5697
5700 5699 5698 5698 5697 5696 5696 5695 5696 5695 5694 5693 5692 5691 5690 5690 5690 5689 5688 5687 5686 5686 5684 5682 5681 5679 5678 5678 5677 5677 5679 5678 5678 5679 5680 5680 5681 5682 5683 5685 5687 5688 5690
5696 5695 5695 5695 5693 5692 5692 5692 5691 5691 5690 5690 5689 5688 5687 5687 5686 5685 5685 5684 5682 5679 5678 5677 5676 5674 5673 5673 5672 5673 5674 5672 5672 5673 5673 5674 5675 5675 5676 5678 5679 5681 5683
5693 5692 5692 5691 5690 5689 5688 5687 5687 5686 5686 5685 5684 5684 5683 5683 5681 5680 5680 5679 5679 5676 5673 5673 5671 5670 5668 5668 5667 5667 5668 5667 5667 5666 5666 5667 5667 5668 5669 5670 5671 5673 5675
5690 5689 5688 5687 5687 5686 5685 5684 5684 5682 5682 5682 5681 5680 5678 5677 5677 5676 5675 5674 5673 5671 5668 5668 5668 5666 5664 5663 5662 5662 5662 5662 5662 5660 5659 5659 5660 5660 5661 5662 5663 5665 5666
5687 5686 5685 5684 5683 5682 5681 5681 5679 5678 5678 5677 5676 5675 5674 5672 5671 5671 5669 5668 5667 5666 5664 5661 5662 5661 5659 5658 5657 5656 5656 5656 5656 5654 5653 5652 5652 5652 5653 5653 5654 5656 5657
5683 5681 5680 5679 5678 5677 5676 5676 5675 5674 5673 5673 5672 5670 5669 5668 5666 5665 5663 5663 5661 5660 5658 5657 5655 5653 5653 5652 5651 5650 5650 5649 5649 5648 5647 5646 5645 5645 5645 5645 5645 5647 5648
5679 5677 5676 5675 5674 5673 5672 5672 5671 5670 5669 5667 5666 5664 5663 5661 5660 5659 5658 5656 5655 5653 5652 5650 5649 5647 5646 5644 5643 5642 5642 5642 5642 5642 5640 5639 5639 5638 5638 5637 5637 5638 5638
5673 5673 5672 5670 5669 5668 5667 5666 5666 5664 5663 5662 5660 5658 5654 5651 5648 5648 5648 5647 5647 5646 5644 5643 5641 5639 5637 5635 5634 5634 5633 5634 5635 5633 5633 5633 5633 5633 5632 5631 5629 5628 5629
5668 5667 5667 5666 5663 5662 5658 5657 5658 5658 5658 5656 5654 5652 5648 5645 5641 5638 5636 5634 5634 5635 5634 5633 5632 5630 5628 5625 5623 5623 5623 5623 5624 5624 5622 5623 5623 5623 5623 5622 5619 5618 5618
5663 5662 5662 5660 5658 5655 5652 5651 5650 5652 5651 5650 5648 5646 5643 5639 5636 5634 5631 5628 5626 5622 5620 5621 5621 5619 5617 5615 5614 5613 5612 5611 5611 5612 5610 5613 5614 5613 5612 5611 5608 5606 5606
5658 5657 5657 5655 5653 5649 5646 5645 5644 5646 5645 5643 5641 5638 5636 5632 5628 5625 5625 5623 5620 5616 5613 5612 5610 5607 5604 5602 5601 5600 5600 5602 5603 5602 5599 5601 5603 5602 5602 5600 5598 5595 5594
5655 5654 5652 5650 5648 5645 5641 5640 5638 5640 5639 5636 5633 5629 5626 5623 5617 5615 5615 5614 5612 5608 5603 5599 5596 5594 5591 5589 5587 5589 5589 5590 5592 5592 5589 5587 5590 5590 5590 5590 5587 5584 5581
5652 5650 5648 5646 5644 5642 5636 5634 5632 5635 5633 5630 5625 5621 5615 5612 5608 5605 5606 5604 5602 5599 5596 5594 5590 5587 5584 5582 5578 5577 5577 5576 5577 5579 5577 5573 5574 5574 5577 5578 5575 5572 5569